Time,TemperatureF,DewpointF,PressureIn,WindDirection,WindDirectionDegrees,WindSpeedMPH,WindSpeedGustMPH,Humidity,HourlyPrecipIn,Conditions,Clouds,dailyrainin,SoftwareType,DateUTC
2013-02-08 00:00:00,59.4,45.5,30.06,NNW,343,1.0,1.0,60,0.00,,CLR,0.00,VWS V14.01,2013-02-08 06:00:00,
2013-02-08 00:02:00,59.7,45.8,30.06,ESE,104,0.0,4.0,60,0.00,,CLR,0.00,VWS V14.01,2013-02-08 06:02:00,
2013-02-08 00:07:00,59.7,46.2,30.06,ESE,104,0.0,4.0,61,0.00,,CLR,0.00,VWS V14.01,2013-02-08 06:07:00,
2013-02-08 00:10:00,59.6,45.7,30.06,ESE,104,4.0,4.0,60,0.00,,CLR,0.00,VWS V14.01,2013-02-08 06:10:00,
2013-02-08 00:12:00,59.7,46.2,30.06,NE,56,0.0,3.0,61,0.00,,CLR,0.00,VWS V14.01,2013-02-08 06:12:00,
2013-02-08 00:17:00,59.6,46.6,30.06,ESE,113,1.0,4.0,62,0.00,,CLR,0.00,VWS V14.01,2013-02-08 06:17:00,
2013-02-08 00:20:00,59.7,46.2,30.06,ESE,104,0.0,4.0,61,0.00,,CLR,0.00,VWS V14.01,2013-02-08 06:20:00,
2013-02-08 00:22:00,59.9,46.4,30.07,North,9,0.0,3.0,61,0.00,,CLR,0.00,VWS V14.01,2013-02-08 06:22:00,
2013-02-08 00:27:00,60.0,46.5,30.07,North,5,0.0,3.0,61,0.00,,CLR,0.00,VWS V14.01,2013-02-08 06:27:00,
2013-02-08 00:30:00,59.7,46.7,30.07,North,355,1.0,4.0,62,0.00,,CLR,0.00,VWS V14.01,2013-02-08 06:30:00,
2013-02-08 00:32:00,60.0,46.5,30.07,North,355,2.0,5.0,61,0.00,,CLR,0.00,VWS V14.01,2013-02-08 06:32:00,
2013-02-08 00:37:00,60.2,46.7,30.07,ESE,122,0.0,5.0,61,0.00,,CLR,0.00,VWS V14.01,2013-02-08 06:37:00,
2013-02-08 00:40:00,60.0,46.5,30.07,North,355,0.0,4.0,61,0.00,,CLR,0.00,VWS V14.01,2013-02-08 06:40:00,
2013-02-08 00:42:00,60.0,46.5,30.07,ESE,122,1.0,2.0,61,0.00,,CLR,0.00,VWS V14.01,2013-02-08 06:42:00,
2013-02-08 00:47:00,59.7,46.7,30.07,NNE,15,0.0,2.0,62,0.00,,CLR,0.00,VWS V14.01,2013-02-08 06:47:00,
2013-02-08 00:50:00,60.2,46.7,30.07,ESE,122,0.0,5.0,61,0.00,,CLR,0.00,VWS V14.01,2013-02-08 06:50:00,
2013-02-08 00:52:00,59.4,46.4,30.07,NNE,15,2.0,3.0,62,0.00,,CLR,0.00,VWS V14.01,2013-02-08 06:52:00,
2013-02-08 00:57:00,59.3,46.3,30.07,NNE,15,1.0,3.0,62,0.00,,CLR,0.00,VWS V14.01,2013-02-08 06:57:00,
2013-02-08 01:00:00,59.6,46.6,30.07,NNE,15,0.0,2.0,62,0.00,,CLR,0.00,VWS V14.01,2013-02-08 07:00:00,
2013-02-08 01:02:00,59.0,46.4,30.07,NNE,15,0.0,1.0,63,0.00,,CLR,0.00,VWS V14.01,2013-02-08 07:02:00,
2013-02-08 01:07:00,58.7,46.6,30.08,NNE,15,0.0,1.0,64,0.00,,CLR,0.00,VWS V14.01,2013-02-08 07:07:00,
2013-02-08 01:10:00,59.1,46.5,30.07,NNE,15,1.0,3.0,63,0.00,,CLR,0.00,VWS V14.01,2013-02-08 07:10:00,
2013-02-08 01:12:00,58.4,46.3,30.08,NNE,15,1.0,3.0,64,0.00,,CLR,0.00,VWS V14.01,2013-02-08 07:12:00,
2013-02-08 01:17:00,58.2,45.7,30.08,NNE,13,0.0,3.0,63,0.00,,CLR,0.00,VWS V14.01,2013-02-08 07:17:00,
2013-02-08 01:20:00,58.5,46.4,30.08,NNE,15,2.0,2.0,64,0.00,,CLR,0.00,VWS V14.01,2013-02-08 07:20:00,
2013-02-08 01:22:00,58.1,46.0,30.08,NNE,13,0.0,1.0,64,0.00,,CLR,0.00,VWS V14.01,2013-02-08 07:22:00,
2013-02-08 01:27:00,57.8,45.7,30.08,NNE,13,0.0,2.0,64,0.00,,CLR,0.00,VWS V14.01,2013-02-08 07:27:00,
2013-02-08 01:30:00,58.2,46.1,30.08,NNE,13,0.0,3.0,64,0.00,,CLR,0.00,VWS V14.01,2013-02-08 07:30:00,
2013-02-08 01:32:00,57.6,45.5,30.08,NNE,13,0.0,1.0,64,0.00,,CLR,0.00,VWS V14.01,2013-02-08 07:32:00,
2013-02-08 01:37:00,57.5,45.4,30.08,NE,49,0.0,3.0,64,0.00,,CLR,0.00,VWS V14.01,2013-02-08 07:37:00,
2013-02-08 01:40:00,57.8,45.7,30.08,NNE,13,0.0,2.0,64,0.00,,CLR,0.00,VWS V14.01,2013-02-08 07:40:00,
2013-02-08 01:42:00,57.1,45.0,30.08,ESE,107,1.0,4.0,64,0.00,,CLR,0.00,VWS V14.01,2013-02-08 07:42:00,
2013-02-08 01:47:00,57.0,45.4,30.08,North,360,0.0,4.0,65,0.00,,CLR,0.00,VWS V14.01,2013-02-08 07:47:00,
2013-02-08 01:50:00,57.3,45.7,30.08,NE,49,0.0,3.0,65,0.00,,CLR,0.00,VWS V14.01,2013-02-08 07:50:00,
2013-02-08 01:52:00,56.7,45.5,30.08,North,360,0.0,0.0,66,0.00,,CLR,0.00,VWS V14.01,2013-02-08 07:52:00,
2013-02-08 01:57:00,56.5,45.3,30.08,North,360,0.0,2.0,66,0.00,,CLR,0.00,VWS V14.01,2013-02-08 07:57:00,
2013-02-08 02:00:00,56.8,45.6,30.08,North,360,0.0,4.0,66,0.00,,CLR,0.00,VWS V14.01,2013-02-08 08:00:00,
2013-02-08 02:02:00,56.5,44.9,30.08,NNE,15,1.0,2.0,65,0.00,,CLR,0.00,VWS V14.01,2013-02-08 08:02:00,
2013-02-08 02:07:00,56.5,44.9,30.08,NNE,15,1.0,2.0,65,0.00,,CLR,0.00,VWS V14.01,2013-02-08 08:07:00,
2013-02-08 02:10:00,56.4,45.2,30.08,NNE,24,1.0,4.0,66,0.00,,CLR,0.00,VWS V14.01,2013-02-08 08:10:00,
2013-02-08 02:12:00,56.5,44.5,30.08,NNE,15,3.0,3.0,64,0.00,,CLR,0.00,VWS V14.01,2013-02-08 08:12:00,
2013-02-08 02:17:00,56.5,44.5,30.08,NNE,12,1.0,4.0,64,0.00,,CLR,0.00,VWS V14.01,2013-02-08 08:17:00,
2013-02-08 02:20:00,56.5,44.5,30.08,NNE,15,2.0,2.0,64,0.00,,CLR,0.00,VWS V14.01,2013-02-08 08:20:00,
2013-02-08 02:22:00,56.5,44.5,30.08,NW,323,0.0,5.0,64,0.00,,CLR,0.00,VWS V14.01,2013-02-08 08:22:00,
2013-02-08 02:27:00,56.2,44.2,30.08,NW,326,0.0,5.0,64,0.00,,CLR,0.00,VWS V14.01,2013-02-08 08:27:00,
2013-02-08 02:30:00,56.5,44.5,30.08,NW,305,5.0,5.0,64,0.00,,CLR,0.00,VWS V14.01,2013-02-08 08:30:00,
2013-02-08 02:32:00,56.1,44.5,30.08,NNW,337,0.0,3.0,65,0.00,,CLR,0.00,VWS V14.01,2013-02-08 08:32:00,
2013-02-08 02:37:00,55.8,44.2,30.07,NNW,337,0.0,3.0,65,0.00,,CLR,0.00,VWS V14.01,2013-02-08 08:37:00,
2013-02-08 02:40:00,56.2,44.2,30.08,NNW,330,2.0,5.0,64,0.00,,CLR,0.00,VWS V14.01,2013-02-08 08:40:00,
2013-02-08 02:42:00,55.8,43.8,30.07,North,355,4.0,5.0,64,0.00,,CLR,0.00,VWS V14.01,2013-02-08 08:42:00,
2013-02-08 02:47:00,55.8,43.8,30.07,North,355,0.0,5.0,64,0.00,,CLR,0.00,VWS V14.01,2013-02-08 08:47:00,
2013-02-08 02:50:00,55.8,44.2,30.07,NNW,337,3.0,3.0,65,0.00,,CLR,0.00,VWS V14.01,2013-02-08 08:50:00,
2013-02-08 02:52:00,56.0,43.6,30.07,North,9,3.0,8.0,63,0.00,,CLR,0.00,VWS V14.01,2013-02-08 08:52:00,
2013-02-08 02:57:00,56.0,43.6,30.07,NNW,345,1.0,8.0,63,0.00,,CLR,0.00,VWS V14.01,2013-02-08 08:57:00,
2013-02-08 03:00:00,55.8,43.8,30.07,North,355,4.0,5.0,64,0.00,,CLR,0.00,VWS V14.01,2013-02-08 09:00:00,
2013-02-08 03:02:00,56.0,43.2,30.07,NNW,334,1.0,8.0,62,0.00,,CLR,0.00,VWS V14.01,2013-02-08 09:02:00,
2013-02-08 03:07:00,56.0,43.2,30.07,NNW,347,2.0,8.0,62,0.00,,CLR,0.00,VWS V14.01,2013-02-08 09:07:00,
2013-02-08 03:10:00,56.0,43.6,30.07,North,5,3.0,8.0,63,0.00,,CLR,0.00,VWS V14.01,2013-02-08 09:10:00,
2013-02-08 03:11:00,55.8,43.0,30.07,NNW,338,0.0,6.0,62,0.00,,CLR,0.00,VWS V14.01,2013-02-08 09:11:00,
2013-02-08 03:17:00,55.7,43.3,30.07,SSE,157,2.0,6.0,63,0.00,,CLR,0.00,VWS V14.01,2013-02-08 09:17:00,
2013-02-08 03:20:00,56.0,43.2,30.07,NNE,21,2.0,8.0,62,0.00,,CLR,0.00,VWS V14.01,2013-02-08 09:20:00,
2013-02-08 03:22:00,55.5,43.1,30.08,NNW,341,4.0,6.0,63,0.00,,CLR,0.00,VWS V14.01,2013-02-08 09:22:00,
2013-02-08 03:27:00,55.5,43.1,30.08,North,355,0.0,6.0,63,0.00,,CLR,0.00,VWS V14.01,2013-02-08 09:27:00,
2013-02-08 03:30:00,55.7,43.3,30.08,North,360,2.0,6.0,63,0.00,,CLR,0.00,VWS V14.01,2013-02-08 09:30:00,
2013-02-08 03:32:00,55.4,43.4,30.08,North,355,0.0,2.0,64,0.00,,CLR,0.00,VWS V14.01,2013-02-08 09:32:00,
2013-02-08 03:37:00,55.1,43.2,30.09,North,11,0.0,5.0,64,0.00,,CLR,0.00,VWS V14.01,2013-02-08 09:37:00,
2013-02-08 03:40:00,55.5,43.1,30.08,North,355,0.0,6.0,63,0.00,,CLR,0.00,VWS V14.01,2013-02-08 09:40:00,
2013-02-08 03:42:00,54.9,43.4,30.09,North,11,0.0,2.0,65,0.00,,CLR,0.00,VWS V14.01,2013-02-08 09:42:00,
2013-02-08 03:47:00,54.6,43.1,30.09,North,5,0.0,4.0,65,0.00,,CLR,0.00,VWS V14.01,2013-02-08 09:47:00,
2013-02-08 03:50:00,55.1,43.6,30.09,North,11,2.0,5.0,65,0.00,,CLR,0.00,VWS V14.01,2013-02-08 09:50:00,
2013-02-08 03:52:00,54.5,43.0,30.09,NE,42,2.0,3.0,65,0.00,,CLR,0.00,VWS V14.01,2013-02-08 09:52:00,
2013-02-08 03:57:00,54.3,43.2,30.09,NNE,24,2.0,4.0,66,0.00,,CLR,0.00,VWS V14.01,2013-02-08 09:57:00,
2013-02-08 04:00:00,54.5,43.0,30.09,ENE,75,1.0,4.0,65,0.00,,CLR,0.00,VWS V14.01,2013-02-08 10:00:00,
2013-02-08 04:02:00,54.2,43.1,30.09,NNE,23,0.0,2.0,66,0.00,,CLR,0.00,VWS V14.01,2013-02-08 10:02:00,
2013-02-08 04:07:00,54.0,42.9,30.09,WNW,299,1.0,3.0,66,0.00,,CLR,0.00,VWS V14.01,2013-02-08 10:07:00,
2013-02-08 04:10:00,54.2,43.1,30.09,NNE,23,1.0,4.0,66,0.00,,CLR,0.00,VWS V14.01,2013-02-08 10:10:00,
2013-02-08 04:12:00,53.7,42.6,30.09,NW,311,0.0,6.0,66,0.00,,CLR,0.00,VWS V14.01,2013-02-08 10:12:00,
2013-02-08 04:17:00,53.4,42.7,30.09,West,273,0.0,6.0,67,0.00,,CLR,0.00,VWS V14.01,2013-02-08 10:17:00,
2013-02-08 04:20:00,53.9,42.8,30.09,WNW,300,2.0,3.0,66,0.00,,CLR,0.00,VWS V14.01,2013-02-08 10:20:00,
2013-02-08 04:22:00,53.1,42.8,30.10,West,274,0.0,2.0,68,0.00,,CLR,0.00,VWS V14.01,2013-02-08 10:22:00,
2013-02-08 04:27:00,52.7,42.8,30.10,NW,315,0.0,3.0,69,0.00,,CLR,0.00,VWS V14.01,2013-02-08 10:27:00,
2013-02-08 04:30:00,53.3,42.6,30.10,West,273,0.0,6.0,67,0.00,,CLR,0.00,VWS V14.01,2013-02-08 10:30:00,
2013-02-08 04:32:00,52.6,42.7,30.10,NE,51,1.0,1.0,69,0.00,,CLR,0.00,VWS V14.01,2013-02-08 10:32:00,
2013-02-08 04:37:00,52.6,42.7,30.11,North,355,1.0,3.0,69,0.00,,CLR,0.00,VWS V14.01,2013-02-08 10:37:00,
2013-02-08 04:40:00,52.7,42.8,30.10,NW,319,0.0,3.0,69,0.00,,CLR,0.00,VWS V14.01,2013-02-08 10:40:00,
2013-02-08 04:42:00,52.4,42.2,30.11,North,355,1.0,3.0,68,0.00,,CLR,0.00,VWS V14.01,2013-02-08 10:42:00,
2013-02-08 04:47:00,52.4,42.5,30.11,NNW,341,0.0,3.0,69,0.00,,CLR,0.00,VWS V14.01,2013-02-08 10:47:00,
2013-02-08 04:50:00,52.6,42.3,30.11,North,355,2.0,3.0,68,0.00,,CLR,0.00,VWS V14.01,2013-02-08 10:50:00,
2013-02-08 04:52:00,52.1,42.2,30.12,NNW,341,1.0,2.0,69,0.00,,CLR,0.00,VWS V14.01,2013-02-08 10:52:00,
2013-02-08 04:57:00,52.0,42.2,30.12,NNW,341,1.0,3.0,69,0.00,,CLR,0.00,VWS V14.01,2013-02-08 10:57:00,
2013-02-08 05:00:00,52.3,42.1,30.12,NNW,341,0.0,3.0,68,0.00,,CLR,0.00,VWS V14.01,2013-02-08 11:00:00,
2013-02-08 05:02:00,51.8,42.0,30.12,NNW,341,0.0,2.0,69,0.00,,CLR,0.00,VWS V14.01,2013-02-08 11:02:00,
2013-02-08 05:07:00,51.7,41.9,30.12,NNW,341,0.0,2.0,69,0.00,,CLR,0.00,VWS V14.01,2013-02-08 11:07:00,
2013-02-08 05:10:00,52.0,42.2,30.12,NNW,341,0.0,3.0,69,0.00,,CLR,0.00,VWS V14.01,2013-02-08 11:10:00,
2013-02-08 05:12:00,51.5,41.7,30.12,NNW,341,0.0,0.0,69,0.00,,CLR,0.00,VWS V14.01,2013-02-08 11:12:00,
2013-02-08 05:17:00,51.4,41.6,30.12,NNW,341,0.0,0.0,69,0.00,,CLR,0.00,VWS V14.01,2013-02-08 11:17:00,
2013-02-08 05:20:00,51.7,41.9,30.12,NNW,341,0.0,2.0,69,0.00,,CLR,0.00,VWS V14.01,2013-02-08 11:20:00,
2013-02-08 05:22:00,51.1,41.3,30.13,NNW,341,0.0,0.0,69,0.00,,CLR,0.00,VWS V14.01,2013-02-08 11:22:00,
2013-02-08 05:27:00,50.8,41.4,30.13,NNW,341,0.0,0.0,70,0.00,,CLR,0.00,VWS V14.01,2013-02-08 11:27:00,
2013-02-08 05:30:00,51.2,41.4,30.13,NNW,341,0.0,0.0,69,0.00,,CLR,0.00,VWS V14.01,2013-02-08 11:30:00,
2013-02-08 05:32:00,50.5,41.1,30.13,NNW,341,0.0,2.0,70,0.00,,CLR,0.00,VWS V14.01,2013-02-08 11:32:00,
2013-02-08 05:37:00,50.3,41.3,30.14,NNW,341,0.0,2.0,71,0.00,,CLR,0.00,VWS V14.01,2013-02-08 11:37:00,
2013-02-08 05:40:00,50.8,41.4,30.13,NNW,341,0.0,0.0,70,0.00,,CLR,0.00,VWS V14.01,2013-02-08 11:40:00,
2013-02-08 05:42:00,50.0,41.0,30.14,NNW,341,0.0,1.0,71,0.00,,CLR,0.00,VWS V14.01,2013-02-08 11:42:00,
2013-02-08 05:47:00,49.9,40.9,30.14,NNW,341,0.0,2.0,71,0.00,,CLR,0.00,VWS V14.01,2013-02-08 11:47:00,
2013-02-08 05:50:00,50.2,41.2,30.14,NNW,341,0.0,2.0,71,0.00,,CLR,0.00,VWS V14.01,2013-02-08 11:50:00,
2013-02-08 05:52:00,49.7,40.7,30.15,NNW,341,0.0,0.0,71,0.00,,CLR,0.00,VWS V14.01,2013-02-08 11:52:00,
2013-02-08 05:57:00,49.4,40.8,30.15,NNW,341,0.0,0.0,72,0.00,,CLR,0.00,VWS V14.01,2013-02-08 11:57:00,
2013-02-08 06:00:00,49.9,40.9,30.15,NNW,341,0.0,2.0,71,0.00,,CLR,0.00,VWS V14.01,2013-02-08 12:00:00,
2013-02-08 06:02:00,49.3,40.7,30.15,NNW,341,0.0,0.0,72,0.00,,CLR,0.00,VWS V14.01,2013-02-08 12:02:00,
2013-02-08 06:07:00,49.0,40.4,30.15,NNW,341,0.0,0.0,72,0.00,,CLR,0.00,VWS V14.01,2013-02-08 12:07:00,
2013-02-08 06:10:00,49.4,40.8,30.15,NNW,341,0.0,0.0,72,0.00,,CLR,0.00,VWS V14.01,2013-02-08 12:10:00,
2013-02-08 06:12:00,48.7,40.1,30.15,NNW,341,0.0,0.0,72,0.00,,CLR,0.00,VWS V14.01,2013-02-08 12:12:00,
2013-02-08 06:17:00,48.6,40.0,30.15,NNW,341,0.0,0.0,72,0.00,,CLR,0.00,VWS V14.01,2013-02-08 12:17:00,
2013-02-08 06:20:00,48.9,40.3,30.15,NNW,341,0.0,0.0,72,0.00,,CLR,0.00,VWS V14.01,2013-02-08 12:20:00,
2013-02-08 06:22:00,48.3,39.7,30.17,NNW,341,0.0,0.0,72,0.00,,CLR,0.00,VWS V14.01,2013-02-08 12:22:00,
2013-02-08 06:27:00,48.0,39.8,30.17,NNW,341,0.0,0.0,73,0.00,,CLR,0.00,VWS V14.01,2013-02-08 12:27:00,
2013-02-08 06:30:00,48.4,39.8,30.17,NNW,341,0.0,0.0,72,0.00,,CLR,0.00,VWS V14.01,2013-02-08 12:30:00,
2013-02-08 06:32:00,47.8,39.6,30.17,NNW,341,0.0,0.0,73,0.00,,CLR,0.00,VWS V14.01,2013-02-08 12:32:00,
2013-02-08 06:37:00,47.5,39.6,30.18,NNW,341,0.0,0.0,74,0.00,,CLR,0.00,VWS V14.01,2013-02-08 12:37:00,
2013-02-08 06:40:00,48.0,39.8,30.17,NNW,341,0.0,0.0,73,0.00,,CLR,0.00,VWS V14.01,2013-02-08 12:40:00,
2013-02-08 06:42:00,47.2,39.3,30.18,NNW,341,0.0,0.0,74,0.00,,CLR,0.00,VWS V14.01,2013-02-08 12:42:00,
2013-02-08 06:47:00,46.9,39.7,30.18,NNW,341,0.0,0.0,76,0.00,,CLR,0.00,VWS V14.01,2013-02-08 12:47:00,
2013-02-08 06:50:00,47.4,39.5,30.18,NNW,341,0.0,0.0,74,0.00,,CLR,0.00,VWS V14.01,2013-02-08 12:50:00,
2013-02-08 06:52:00,46.6,39.5,30.18,NNW,341,0.0,0.0,76,0.00,,CLR,0.00,VWS V14.01,2013-02-08 12:52:00,
2013-02-08 06:57:00,46.5,39.7,30.18,NNW,341,0.0,0.0,77,0.00,,CLR,0.00,VWS V14.01,2013-02-08 12:57:00,
2013-02-08 07:00:00,46.8,39.7,30.18,NNW,341,0.0,0.0,76,0.00,,CLR,0.00,VWS V14.01,2013-02-08 13:00:00,
2013-02-08 07:02:00,46.2,39.4,30.18,NNW,341,0.0,0.0,77,0.00,,CLR,0.00,VWS V14.01,2013-02-08 13:02:00,
2013-02-08 07:07:00,46.0,39.2,30.18,NNW,341,0.0,0.0,77,0.00,,CLR,0.00,VWS V14.01,2013-02-08 13:07:00,
2013-02-08 07:10:00,46.3,39.5,30.18,NNW,341,0.0,0.0,77,0.00,,CLR,0.00,VWS V14.01,2013-02-08 13:10:00,
2013-02-08 07:12:00,45.9,39.4,30.18,NNW,341,0.0,0.0,78,0.00,,CLR,0.00,VWS V14.01,2013-02-08 13:12:00,
2013-02-08 07:17:00,45.6,39.2,30.18,NNW,341,0.0,0.0,78,0.00,,CLR,0.00,VWS V14.01,2013-02-08 13:17:00,
2013-02-08 07:20:00,46.0,39.2,30.18,NNW,341,0.0,0.0,77,0.00,,CLR,0.00,VWS V14.01,2013-02-08 13:20:00,
2013-02-08 07:22:00,45.5,39.4,30.19,NNW,335,0.0,0.0,79,0.00,,CLR,0.00,VWS V14.01,2013-02-08 13:22:00,
2013-02-08 07:27:00,45.3,39.5,30.19,NNW,335,0.0,0.0,80,0.00,,CLR,0.00,VWS V14.01,2013-02-08 13:27:00,
2013-02-08 07:30:00,45.6,39.5,30.19,NNW,341,0.0,0.0,79,0.00,,CLR,0.00,VWS V14.01,2013-02-08 13:30:00,
2013-02-08 07:32:00,45.2,39.4,30.19,NNW,335,0.0,0.0,80,0.00,,CLR,0.00,VWS V14.01,2013-02-08 13:32:00,
2013-02-08 07:37:00,45.2,39.4,30.19,NNW,335,0.0,0.0,80,0.00,,CLR,0.00,VWS V14.01,2013-02-08 13:37:00,
2013-02-08 07:40:00,45.3,39.2,30.19,NNW,335,0.0,0.0,79,0.00,,CLR,0.00,VWS V14.01,2013-02-08 13:40:00,
2013-02-08 07:42:00,45.2,39.4,30.19,NNW,335,0.0,0.0,80,0.00,,CLR,0.00,VWS V14.01,2013-02-08 13:42:00,
2013-02-08 07:47:00,45.2,39.1,30.19,NNW,335,0.0,0.0,79,0.00,,CLR,0.00,VWS V14.01,2013-02-08 13:47:00,
2013-02-08 07:50:00,45.2,39.4,30.19,NNW,335,0.0,0.0,80,0.00,,CLR,0.00,VWS V14.01,2013-02-08 13:50:00,
2013-02-08 07:52:00,45.3,39.2,30.20,NNW,335,0.0,0.0,79,0.00,,CLR,0.00,VWS V14.01,2013-02-08 13:52:00,
2013-02-08 07:57:00,45.5,39.4,30.20,NNW,335,0.0,0.0,79,0.00,,CLR,0.00,VWS V14.01,2013-02-08 13:57:00,
2013-02-08 08:00:00,45.3,39.2,30.20,NNW,335,0.0,0.0,79,0.00,,CLR,0.00,VWS V14.01,2013-02-08 14:00:00,
2013-02-08 08:02:00,45.9,39.8,30.20,NNW,335,0.0,0.0,79,0.00,,CLR,0.00,VWS V14.01,2013-02-08 14:02:00,
2013-02-08 08:07:00,46.6,40.1,30.20,NNW,335,0.0,1.0,78,0.00,,CLR,0.00,VWS V14.01,2013-02-08 14:07:00,
2013-02-08 08:10:00,45.5,39.4,30.20,NNW,335,0.0,0.0,79,0.00,,CLR,0.00,VWS V14.01,2013-02-08 14:10:00,
2013-02-08 08:12:00,47.4,40.2,30.20,NNW,335,0.0,3.0,76,0.00,,CLR,0.00,VWS V14.01,2013-02-08 14:12:00,
2013-02-08 08:17:00,48.3,40.4,30.20,NNW,335,1.0,3.0,74,0.00,,CLR,0.00,VWS V14.01,2013-02-08 14:17:00,
2013-02-08 08:20:00,46.8,40.3,30.20,NNW,335,0.0,1.0,78,0.00,,CLR,0.00,VWS V14.01,2013-02-08 14:20:00,
2013-02-08 08:22:00,49.0,40.7,30.21,NNW,335,0.0,0.0,73,0.00,,CLR,0.00,VWS V14.01,2013-02-08 14:22:00,
2013-02-08 08:27:00,49.6,40.6,30.21,NNW,335,0.0,3.0,71,0.00,,CLR,0.00,VWS V14.01,2013-02-08 14:27:00,
2013-02-08 08:30:00,48.4,40.5,30.21,NNW,335,0.0,3.0,74,0.00,,CLR,0.00,VWS V14.01,2013-02-08 14:30:00,
2013-02-08 08:32:00,50.2,40.8,30.21,NNW,335,0.0,2.0,70,0.00,,CLR,0.00,VWS V14.01,2013-02-08 14:32:00,
2013-02-08 08:37:00,50.6,40.8,30.21,NNW,335,2.0,2.0,69,0.00,,CLR,0.00,VWS V14.01,2013-02-08 14:37:00,
2013-02-08 08:40:00,49.7,40.7,30.21,NNW,335,0.0,3.0,71,0.00,,CLR,0.00,VWS V14.01,2013-02-08 14:40:00,
2013-02-08 08:42:00,51.1,40.5,30.21,NNW,335,0.0,2.0,67,0.00,,CLR,0.00,VWS V14.01,2013-02-08 14:42:00,
2013-02-08 08:47:00,51.4,40.4,30.21,NNW,335,0.0,4.0,66,0.00,,CLR,0.00,VWS V14.01,2013-02-08 14:47:00,
2013-02-08 08:50:00,50.6,40.8,30.21,NNW,335,0.0,4.0,69,0.00,,CLR,0.00,VWS V14.01,2013-02-08 14:50:00,
2013-02-08 08:52:00,51.8,40.0,30.21,North,9,1.0,3.0,64,0.00,,CLR,0.00,VWS V14.01,2013-02-08 14:52:00,
2013-02-08 08:57:00,52.1,39.5,30.21,NNW,336,3.0,4.0,62,0.00,,CLR,0.00,VWS V14.01,2013-02-08 14:57:00,
2013-02-08 09:00:00,51.5,40.9,30.21,NNW,335,1.0,4.0,67,0.00,,CLR,0.00,VWS V14.01,2013-02-08 15:00:00,
2013-02-08 09:02:00,52.6,40.0,30.21,NNW,346,2.0,3.0,62,0.00,,CLR,0.00,VWS V14.01,2013-02-08 15:02:00,
2013-02-08 09:07:00,53.1,39.6,30.22,NNE,13,2.0,4.0,60,0.00,,CLR,0.00,VWS V14.01,2013-02-08 15:07:00,
2013-02-08 09:10:00,52.3,39.7,30.21,NNW,341,0.0,4.0,62,0.00,,CLR,0.00,VWS V14.01,2013-02-08 15:10:00,
2013-02-08 09:12:00,53.6,39.2,30.22,ENE,59,7.0,7.0,58,0.00,,CLR,0.00,VWS V14.01,2013-02-08 15:12:00,
2013-02-08 09:17:00,54.2,38.4,30.22,NNW,341,1.0,7.0,55,0.00,,CLR,0.00,VWS V14.01,2013-02-08 15:17:00,
2013-02-08 09:20:00,53.1,39.2,30.22,NNE,13,3.0,4.0,59,0.00,,CLR,0.00,VWS V14.01,2013-02-08 15:20:00,
2013-02-08 09:22:00,54.5,39.1,30.22,North,360,2.0,6.0,56,0.00,,CLR,0.00,VWS V14.01,2013-02-08 15:22:00,
2013-02-08 09:27:00,54.9,39.0,30.22,NNE,27,2.0,6.0,55,0.00,,CLR,0.00,VWS V14.01,2013-02-08 15:27:00,
2013-02-08 09:30:00,54.2,38.9,30.22,NNW,333,4.0,7.0,56,0.00,,CLR,0.00,VWS V14.01,2013-02-08 15:30:00,
2013-02-08 09:32:00,55.4,38.6,30.22,North,360,0.0,4.0,53,0.00,,CLR,0.00,VWS V14.01,2013-02-08 15:32:00,
2013-02-08 09:37:00,55.8,36.9,30.22,ENE,70,2.0,4.0,49,0.00,,CLR,0.00,VWS V14.01,2013-02-08 15:37:00,
2013-02-08 09:40:00,55.1,38.8,30.22,NNE,21,1.0,6.0,54,0.00,,CLR,0.00,VWS V14.01,2013-02-08 15:40:00,
2013-02-08 09:42:00,56.1,37.2,30.22,NE,47,2.0,6.0,49,0.00,,CLR,0.00,VWS V14.01,2013-02-08 15:42:00,
2013-02-08 09:47:00,56.5,36.5,30.22,North,355,1.0,6.0,47,0.00,,CLR,0.00,VWS V14.01,2013-02-08 15:47:00,
2013-02-08 09:50:00,55.8,36.4,30.22,NE,56,6.0,6.0,48,0.00,,CLR,0.00,VWS V14.01,2013-02-08 15:50:00,
2013-02-08 09:52:00,56.7,36.2,30.22,NNE,18,0.0,4.0,46,0.00,,CLR,0.00,VWS V14.01,2013-02-08 15:52:00,
2013-02-08 09:57:00,56.8,36.3,30.22,North,5,2.0,5.0,46,0.00,,CLR,0.00,VWS V14.01,2013-02-08 15:57:00,
2013-02-08 10:00:00,56.5,37.6,30.22,North,11,3.0,6.0,49,0.00,,CLR,0.00,VWS V14.01,2013-02-08 16:00:00,
2013-02-08 10:02:00,57.0,34.8,30.22,NE,53,2.0,5.0,43,0.00,,CLR,0.00,VWS V14.01,2013-02-08 16:02:00,
2013-02-08 10:07:00,57.1,35.4,30.22,NE,50,3.0,5.0,44,0.00,,CLR,0.00,VWS V14.01,2013-02-08 16:07:00,
2013-02-08 10:10:00,56.8,36.8,30.22,ENE,62,5.0,5.0,47,0.00,,CLR,0.00,VWS V14.01,2013-02-08 16:10:00,
2013-02-08 10:12:00,57.5,35.2,30.22,ENE,58,1.0,4.0,43,0.00,,CLR,0.00,VWS V14.01,2013-02-08 16:12:00,
2013-02-08 10:17:00,57.9,36.1,30.23,North,360,4.0,8.0,44,0.00,,CLR,0.00,VWS V14.01,2013-02-08 16:17:00,
2013-02-08 10:20:00,57.1,34.8,30.22,North,5,4.0,5.0,43,0.00,,CLR,0.00,VWS V14.01,2013-02-08 16:20:00,
2013-02-08 10:22:00,58.2,34.6,30.23,ENE,64,1.0,7.0,41,0.00,,CLR,0.00,VWS V14.01,2013-02-08 16:22:00,
2013-02-08 10:27:00,58.5,36.7,30.23,NE,52,2.0,7.0,44,0.00,,CLR,0.00,VWS V14.01,2013-02-08 16:27:00,
2013-02-08 10:30:00,58.1,35.7,30.23,ENE,65,4.0,8.0,43,0.00,,CLR,0.00,VWS V14.01,2013-02-08 16:30:00,
2013-02-08 10:32:00,58.8,34.5,30.23,NE,34,0.0,5.0,40,0.00,,CLR,0.00,VWS V14.01,2013-02-08 16:32:00,
2013-02-08 10:37:00,59.4,35.7,30.23,North,11,3.0,5.0,41,0.00,,CLR,0.00,VWS V14.01,2013-02-08 16:37:00,
2013-02-08 10:40:00,58.5,35.5,30.23,NE,46,2.0,7.0,42,0.00,,CLR,0.00,VWS V14.01,2013-02-08 16:40:00,
2013-02-08 10:42:00,59.7,34.1,30.23,North,5,0.0,5.0,38,0.00,,CLR,0.00,VWS V14.01,2013-02-08 16:42:00,
2013-02-08 10:47:00,59.7,34.7,30.21,NNW,337,1.0,6.0,39,0.00,,CLR,0.00,VWS V14.01,2013-02-08 16:47:00,
2013-02-08 10:50:00,59.6,36.5,30.23,NNW,338,2.0,5.0,42,0.00,,CLR,0.00,VWS V14.01,2013-02-08 16:50:00,
2013-02-08 10:52:00,60.0,34.3,30.21,NNE,24,3.0,8.0,38,0.00,,CLR,0.00,VWS V14.01,2013-02-08 16:52:00,
2013-02-08 10:57:00,60.5,36.1,30.21,NNE,14,3.0,8.0,40,0.00,,CLR,0.00,VWS V14.01,2013-02-08 16:57:00,
2013-02-08 11:00:00,59.9,34.9,30.21,North,355,2.0,6.0,39,0.00,,CLR,0.00,VWS V14.01,2013-02-08 17:00:00,
2013-02-08 11:02:00,61.3,36.2,30.21,North,5,3.0,6.0,39,0.00,,CLR,0.00,VWS V14.01,2013-02-08 17:02:00,
2013-02-08 11:07:00,61.9,36.0,30.21,NNE,16,1.0,6.0,38,0.00,,CLR,0.00,VWS V14.01,2013-02-08 17:07:00,
2013-02-08 11:10:00,60.7,36.3,30.21,North,9,3.0,8.0,40,0.00,,CLR,0.00,VWS V14.01,2013-02-08 17:10:00,
2013-02-08 11:12:00,62.2,33.5,30.21,NE,46,1.0,5.0,34,0.00,,CLR,0.00,VWS V14.01,2013-02-08 17:12:00,
2013-02-08 11:17:00,62.4,33.7,30.21,NE,47,0.0,5.0,34,0.00,,CLR,0.00,VWS V14.01,2013-02-08 17:17:00,
2013-02-08 11:20:00,62.1,36.2,30.21,NNE,12,0.0,6.0,38,0.00,,CLR,0.00,VWS V14.01,2013-02-08 17:20:00,
2013-02-08 11:22:00,63.0,33.5,30.21,North,360,4.0,6.0,33,0.00,,CLR,0.00,VWS V14.01,2013-02-08 17:22:00,
2013-02-08 11:27:00,63.4,33.0,30.21,NNE,14,0.0,6.0,32,0.00,,CLR,0.00,VWS V14.01,2013-02-08 17:27:00,
2013-02-08 11:30:00,62.6,33.1,30.21,NNE,30,1.0,5.0,33,0.00,,CLR,0.00,VWS V14.01,2013-02-08 17:30:00,
2013-02-08 11:32:00,63.8,31.8,30.21,ENE,65,2.0,5.0,30,0.00,,CLR,0.00,VWS V14.01,2013-02-08 17:32:00,
2013-02-08 11:37:00,64.0,32.0,30.21,North,5,3.0,6.0,30,0.00,,CLR,0.00,VWS V14.01,2013-02-08 17:37:00,
2013-02-08 11:40:00,63.5,33.9,30.21,NNE,15,2.0,6.0,33,0.00,,CLR,0.00,VWS V14.01,2013-02-08 17:40:00,
2013-02-08 11:42:00,64.2,30.4,30.21,NE,48,2.0,6.0,28,0.00,,CLR,0.00,VWS V14.01,2013-02-08 17:42:00,
2013-02-08 11:47:00,64.3,29.6,30.21,NE,41,4.0,6.0,27,0.00,,CLR,0.00,VWS V14.01,2013-02-08 17:47:00,
2013-02-08 11:50:00,64.0,32.0,30.21,NE,39,2.0,6.0,30,0.00,,CLR,0.00,VWS V14.01,2013-02-08 17:50:00,
2013-02-08 11:52:00,64.8,31.0,30.21,ESE,113,1.0,5.0,28,0.00,,CLR,0.00,VWS V14.01,2013-02-08 17:52:00,
2013-02-08 11:57:00,65.3,33.1,30.21,NNE,22,1.0,7.0,30,0.00,,CLR,0.00,VWS V14.01,2013-02-08 17:57:00,
2013-02-08 12:00:00,64.3,28.7,30.21,NE,42,3.0,6.0,26,0.00,,CLR,0.00,VWS V14.01,2013-02-08 18:00:00,
2013-02-08 12:02:00,65.5,29.7,30.20,ENE,63,1.0,6.0,26,0.00,,CLR,0.00,VWS V14.01,2013-02-08 18:02:00,
2013-02-08 12:07:00,65.8,30.9,30.20,NNE,22,3.0,6.0,27,0.00,,CLR,0.00,VWS V14.01,2013-02-08 18:07:00,
2013-02-08 12:10:00,65.3,33.9,30.21,NE,41,1.0,7.0,31,0.00,,CLR,0.00,VWS V14.01,2013-02-08 18:10:00,
2013-02-08 12:12:00,65.9,31.0,30.20,NNE,15,2.0,6.0,27,0.00,,CLR,0.00,VWS V14.01,2013-02-08 18:12:00,
2013-02-08 12:18:00,66.3,32.2,30.20,NNE,30,0.0,6.0,28,0.00,,CLR,0.00,VWS V14.01,2013-02-08 18:18:00,
2013-02-08 12:20:00,65.8,30.9,30.20,North,9,2.0,6.0,27,0.00,,CLR,0.00,VWS V14.01,2013-02-08 18:20:00,
2013-02-08 12:23:00,66.6,32.5,30.20,NE,38,2.0,7.0,28,0.00,,CLR,0.00,VWS V14.01,2013-02-08 18:23:00,
2013-02-08 12:28:00,66.9,31.9,30.20,North,360,3.0,7.0,27,0.00,,CLR,0.00,VWS V14.01,2013-02-08 18:28:00,
2013-02-08 12:30:00,66.3,32.2,30.20,ENE,59,2.0,6.0,28,0.00,,CLR,0.00,VWS V14.01,2013-02-08 18:30:00,
2013-02-08 12:33:00,67.3,35.7,30.19,NE,45,4.0,6.0,31,0.00,,CLR,0.00,VWS V14.01,2013-02-08 18:33:00,
2013-02-08 12:38:00,67.3,32.2,30.19,ENE,78,0.0,6.0,27,0.00,,CLR,0.00,VWS V14.01,2013-02-08 18:38:00,
2013-02-08 12:40:00,66.9,31.9,30.20,North,360,0.0,7.0,27,0.00,,CLR,0.00,VWS V14.01,2013-02-08 18:40:00,
2013-02-08 12:43:00,67.6,32.5,30.19,NE,40,0.0,5.0,27,0.00,,CLR,0.00,VWS V14.01,2013-02-08 18:43:00,
2013-02-08 12:48:00,67.6,31.5,30.18,North,355,2.0,7.0,26,0.00,,CLR,0.00,VWS V14.01,2013-02-08 18:48:00,
2013-02-08 12:50:00,67.3,31.3,30.19,ENE,78,0.0,6.0,26,0.00,,CLR,0.00,VWS V14.01,2013-02-08 18:50:00,
2013-02-08 12:53:00,67.8,30.7,30.18,NNE,24,3.0,6.0,25,0.00,,CLR,0.00,VWS V14.01,2013-02-08 18:53:00,
2013-02-08 12:58:00,67.9,30.8,30.18,NE,55,1.0,7.0,25,0.00,,CLR,0.00,VWS V14.01,2013-02-08 18:58:00,
2013-02-08 13:00:00,67.6,31.5,30.18,North,355,1.0,7.0,26,0.00,,CLR,0.00,VWS V14.01,2013-02-08 19:00:00,
2013-02-08 13:03:00,68.4,33.1,30.17,NE,42,0.0,5.0,27,0.00,,CLR,0.00,VWS V14.01,2013-02-08 19:03:00,
2013-02-08 13:08:00,68.8,31.6,30.17,NNE,24,0.0,5.0,25,0.00,,CLR,0.00,VWS V14.01,2013-02-08 19:08:00,
2013-02-08 13:10:00,67.9,30.8,30.18,NE,55,1.0,7.0,25,0.00,,CLR,0.00,VWS V14.01,2013-02-08 19:10:00,
2013-02-08 13:13:00,68.8,30.6,30.17,NNW,348,2.0,5.0,24,0.00,,CLR,0.00,VWS V14.01,2013-02-08 19:13:00,
2013-02-08 13:18:00,68.8,31.6,30.15,NNE,23,3.0,5.0,25,0.00,,CLR,0.00,VWS V14.01,2013-02-08 19:18:00,
2013-02-08 13:20:00,68.8,31.6,30.17,NNE,24,0.0,5.0,25,0.00,,CLR,0.00,VWS V14.01,2013-02-08 19:20:00,
2013-02-08 13:23:00,68.8,30.6,30.15,NNE,12,1.0,6.0,24,0.00,,CLR,0.00,VWS V14.01,2013-02-08 19:23:00,
2013-02-08 13:28:00,68.9,30.6,30.15,SSW,207,1.0,2.0,24,0.00,,CLR,0.00,VWS V14.01,2013-02-08 19:28:00,
2013-02-08 13:30:00,68.8,31.6,30.15,NNE,23,3.0,5.0,25,0.00,,CLR,0.00,VWS V14.01,2013-02-08 19:30:00,
2013-02-08 13:33:00,69.1,30.8,30.14,ENE,61,4.0,5.0,24,0.00,,CLR,0.00,VWS V14.01,2013-02-08 19:33:00,
2013-02-08 13:38:00,69.1,29.8,30.14,NE,54,2.0,5.0,23,0.00,,CLR,0.00,VWS V14.01,2013-02-08 19:38:00,
2013-02-08 13:40:00,68.9,30.6,30.15,SSW,207,2.0,8.0,24,0.00,,CLR,0.00,VWS V14.01,2013-02-08 19:40:00,
2013-02-08 13:43:00,69.4,32.1,30.14,North,360,3.0,5.0,25,0.00,,CLR,0.00,VWS V14.01,2013-02-08 19:43:00,
2013-02-08 13:48:00,70.1,32.7,30.14,North,351,3.0,4.0,25,0.00,,CLR,0.00,VWS V14.01,2013-02-08 19:48:00,
2013-02-08 13:50:00,69.1,29.8,30.14,NE,54,2.0,5.0,23,0.00,,CLR,0.00,VWS V14.01,2013-02-08 19:50:00,
2013-02-08 13:53:00,70.1,29.5,30.14,ESE,121,0.0,6.0,22,0.00,,CLR,0.00,VWS V14.01,2013-02-08 19:53:00,
2013-02-08 13:58:00,70.1,31.7,30.14,North,10,3.0,6.0,24,0.00,,CLR,0.00,VWS V14.01,2013-02-08 19:58:00,
2013-02-08 14:00:00,70.1,31.7,30.14,North,351,4.0,6.0,24,0.00,,CLR,0.00,VWS V14.01,2013-02-08 20:00:00,
2013-02-08 14:03:00,69.9,30.5,30.14,North,9,3.0,5.0,23,0.00,,CLR,0.00,VWS V14.01,2013-02-08 20:03:00,
2013-02-08 14:08:00,70.1,29.5,30.14,NE,55,1.0,1.0,22,0.00,,CLR,0.00,VWS V14.01,2013-02-08 20:08:00,
2013-02-08 14:10:00,70.1,31.7,30.14,North,10,3.0,6.0,24,0.00,,CLR,0.00,VWS V14.01,2013-02-08 20:10:00,
2013-02-08 14:13:00,70.1,30.6,30.14,NE,37,3.0,4.0,23,0.00,,CLR,0.00,VWS V14.01,2013-02-08 20:13:00,
2013-02-08 14:18:00,70.3,30.8,30.12,North,360,4.0,4.0,23,0.00,,CLR,0.00,VWS V14.01,2013-02-08 20:18:00,
2013-02-08 14:20:00,70.1,29.5,30.14,NE,55,1.0,5.0,22,0.00,,CLR,0.00,VWS V14.01,2013-02-08 20:20:00,
2013-02-08 14:23:00,70.6,27.6,30.12,NNE,15,0.0,4.0,20,0.00,,CLR,0.00,VWS V14.01,2013-02-08 20:23:00,
2013-02-08 14:28:00,70.8,26.5,30.12,NNE,30,1.0,1.0,19,0.00,,CLR,0.00,VWS V14.01,2013-02-08 20:28:00,
2013-02-08 14:30:00,70.3,30.8,30.12,North,360,4.0,4.0,23,0.00,,CLR,0.00,VWS V14.01,2013-02-08 20:30:00,
2013-02-08 14:33:00,70.8,31.2,30.12,North,360,5.0,5.0,23,0.00,,CLR,0.00,VWS V14.01,2013-02-08 20:33:00,
2013-02-08 14:38:00,70.6,27.6,30.12,NE,47,1.0,1.0,20,0.00,,CLR,0.00,VWS V14.01,2013-02-08 20:38:00,
2013-02-08 14:40:00,70.8,26.5,30.12,NNE,31,1.0,5.0,19,0.00,,CLR,0.00,VWS V14.01,2013-02-08 20:40:00,
2013-02-08 14:43:00,70.6,27.6,30.12,NE,41,1.0,4.0,20,0.00,,CLR,0.00,VWS V14.01,2013-02-08 20:43:00,
2013-02-08 14:48:00,70.8,26.5,30.12,ESE,107,1.0,1.0,19,0.00,,CLR,0.00,VWS V14.01,2013-02-08 20:48:00,
2013-02-08 14:50:00,70.6,27.6,30.12,NE,47,1.0,5.0,20,0.00,,CLR,0.00,VWS V14.01,2013-02-08 20:50:00,
2013-02-08 14:53:00,71.0,28.0,30.12,NNE,26,3.0,5.0,20,0.00,,CLR,0.00,VWS V14.01,2013-02-08 20:53:00,
2013-02-08 14:58:00,71.0,28.0,30.12,NNE,27,1.0,2.0,20,0.00,,CLR,0.00,VWS V14.01,2013-02-08 20:58:00,
2013-02-08 15:00:00,70.8,26.5,30.12,ESE,107,0.0,7.0,19,0.00,,CLR,0.00,VWS V14.01,2013-02-08 21:00:00,
2013-02-08 15:03:00,70.8,26.5,30.12,NNE,28,2.0,4.0,19,0.00,,CLR,0.00,VWS V14.01,2013-02-08 21:03:00,
2013-02-08 15:08:00,70.8,31.2,30.12,North,11,1.0,1.0,23,0.00,,CLR,0.00,VWS V14.01,2013-02-08 21:08:00,
2013-02-08 15:10:00,71.0,26.7,30.12,NNE,27,1.0,5.0,19,0.00,,CLR,0.00,VWS V14.01,2013-02-08 21:10:00,
2013-02-08 15:13:00,71.1,26.8,30.12,NNE,31,0.0,4.0,19,0.00,,CLR,0.00,VWS V14.01,2013-02-08 21:13:00,
2013-02-08 15:18:00,71.3,25.6,30.11,NE,38,0.0,1.0,18,0.00,,CLR,0.00,VWS V14.01,2013-02-08 21:18:00,
2013-02-08 15:20:00,70.8,31.2,30.12,North,11,1.0,4.0,23,0.00,,CLR,0.00,VWS V14.01,2013-02-08 21:20:00,
2013-02-08 15:23:00,71.3,28.2,30.11,NE,42,2.0,5.0,20,0.00,,CLR,0.00,VWS V14.01,2013-02-08 21:23:00,
2013-02-08 15:28:00,71.3,30.5,30.11,East,90,1.0,2.0,22,0.00,,CLR,0.00,VWS V14.01,2013-02-08 21:28:00,
2013-02-08 15:30:00,71.3,25.6,30.11,NE,38,0.0,4.0,18,0.00,,CLR,0.00,VWS V14.01,2013-02-08 21:30:00,
2013-02-08 15:33:00,71.5,27.1,30.10,NNE,18,0.0,3.0,19,0.00,,CLR,0.00,VWS V14.01,2013-02-08 21:33:00,
2013-02-08 15:38:00,71.1,28.0,30.10,NE,49,0.0,1.0,20,0.00,,CLR,0.00,VWS V14.01,2013-02-08 21:38:00,
2013-02-08 15:40:00,71.3,30.5,30.11,SSE,148,0.0,5.0,22,0.00,,CLR,0.00,VWS V14.01,2013-02-08 21:40:00,
2013-02-08 15:43:00,71.0,29.1,30.10,NE,42,0.0,4.0,21,0.00,,CLR,0.00,VWS V14.01,2013-02-08 21:43:00,
2013-02-08 15:48:00,70.8,27.8,30.10,East,92,0.0,1.0,20,0.00,,CLR,0.00,VWS V14.01,2013-02-08 21:48:00,
2013-02-08 15:50:00,71.1,29.2,30.10,NE,49,1.0,4.0,21,0.00,,CLR,0.00,VWS V14.01,2013-02-08 21:50:00,
2013-02-08 15:53:00,70.6,27.6,30.10,NW,325,2.0,5.0,20,0.00,,CLR,0.00,VWS V14.01,2013-02-08 21:53:00,
2013-02-08 15:58:00,70.4,27.5,30.10,NNE,30,0.0,0.0,20,0.00,,CLR,0.00,VWS V14.01,2013-02-08 21:58:00,
2013-02-08 16:00:00,70.8,27.8,30.10,East,92,1.0,4.0,20,0.00,,CLR,0.00,VWS V14.01,2013-02-08 22:00:00,
2013-02-08 16:03:00,70.4,27.5,30.10,NE,46,0.0,2.0,20,0.00,,CLR,0.00,VWS V14.01,2013-02-08 22:03:00,
2013-02-08 16:08:00,70.4,26.2,30.10,ESE,106,0.0,0.0,19,0.00,,CLR,0.00,VWS V14.01,2013-02-08 22:08:00,
2013-02-08 16:10:00,70.4,27.5,30.10,NNE,30,0.0,5.0,20,0.00,,CLR,0.00,VWS V14.01,2013-02-08 22:10:00,
2013-02-08 16:13:00,70.1,27.2,30.10,NE,47,1.0,2.0,20,0.00,,CLR,0.00,VWS V14.01,2013-02-08 22:13:00,
2013-02-08 16:18:00,69.9,27.0,30.10,NNE,18,0.0,0.0,20,0.00,,CLR,0.00,VWS V14.01,2013-02-08 22:18:00,
2013-02-08 16:20:00,70.4,28.6,30.10,ESE,106,0.0,4.0,21,0.00,,CLR,0.00,VWS V14.01,2013-02-08 22:20:00,
2013-02-08 16:23:00,69.6,28.0,30.10,NNE,18,1.0,3.0,21,0.00,,CLR,0.00,VWS V14.01,2013-02-08 22:23:00,
2013-02-08 16:28:00,68.9,28.5,30.10,NNE,18,0.0,0.0,22,0.00,,CLR,0.00,VWS V14.01,2013-02-08 22:28:00,
2013-02-08 16:30:00,69.9,27.0,30.10,NNE,18,0.0,3.0,20,0.00,,CLR,0.00,VWS V14.01,2013-02-08 22:30:00,
2013-02-08 16:33:00,68.3,28.0,30.10,NNE,18,0.0,2.0,22,0.00,,CLR,0.00,VWS V14.01,2013-02-08 22:33:00,
2013-02-08 16:38:00,67.6,27.4,30.10,NNE,18,1.0,2.0,22,0.00,,CLR,0.00,VWS V14.01,2013-02-08 22:38:00,
2013-02-08 16:40:00,69.1,28.7,30.10,NNE,18,0.0,3.0,22,0.00,,CLR,0.00,VWS V14.01,2013-02-08 22:40:00,
2013-02-08 16:43:00,67.3,28.3,30.10,NNE,20,0.0,3.0,23,0.00,,CLR,0.00,VWS V14.01,2013-02-08 22:43:00,
2013-02-08 16:48:00,67.1,28.1,30.09,NNE,20,0.0,1.0,23,0.00,,CLR,0.00,VWS V14.01,2013-02-08 22:48:00,
2013-02-08 16:50:00,67.8,27.6,30.10,NNE,18,2.0,2.0,22,0.00,,CLR,0.00,VWS V14.01,2013-02-08 22:50:00,
2013-02-08 16:53:00,66.9,27.9,30.09,NNE,20,0.0,1.0,23,0.00,,CLR,0.00,VWS V14.01,2013-02-08 22:53:00,
2013-02-08 16:58:00,66.8,29.9,30.09,NNE,20,0.0,0.0,25,0.00,,CLR,0.00,VWS V14.01,2013-02-08 22:58:00,
2013-02-08 17:00:00,67.1,29.1,30.09,NNE,20,1.0,3.0,24,0.00,,CLR,0.00,VWS V14.01,2013-02-08 23:00:00,
2013-02-08 17:03:00,66.6,27.7,30.09,NNE,20,0.0,1.0,23,0.00,,CLR,0.00,VWS V14.01,2013-02-08 23:03:00,
2013-02-08 17:08:00,66.4,28.5,30.09,NNE,20,0.0,0.0,24,0.00,,CLR,0.00,VWS V14.01,2013-02-08 23:08:00,
2013-02-08 17:10:00,66.8,29.9,30.09,NNE,20,0.0,1.0,25,0.00,,CLR,0.00,VWS V14.01,2013-02-08 23:10:00,
2013-02-08 17:13:00,66.3,28.5,30.09,NNE,20,0.0,0.0,24,0.00,,CLR,0.00,VWS V14.01,2013-02-08 23:13:00,
2013-02-08 17:18:00,66.3,28.5,30.10,NNE,20,0.0,0.0,24,0.00,,CLR,0.00,VWS V14.01,2013-02-08 23:18:00,
2013-02-08 17:20:00,66.4,28.5,30.09,NNE,20,0.0,1.0,24,0.00,,CLR,0.00,VWS V14.01,2013-02-08 23:20:00,
2013-02-08 17:23:00,66.1,28.3,30.10,NNE,20,0.0,0.0,24,0.00,,CLR,0.00,VWS V14.01,2013-02-08 23:23:00,
2013-02-08 17:28:00,66.1,29.3,30.10,NNE,21,0.0,0.0,25,0.00,,CLR,0.00,VWS V14.01,2013-02-08 23:28:00,
2013-02-08 17:30:00,66.3,28.5,30.10,NNE,20,0.0,0.0,24,0.00,,CLR,0.00,VWS V14.01,2013-02-08 23:30:00,
2013-02-08 17:33:00,65.9,29.1,30.09,NNE,22,0.0,1.0,25,0.00,,CLR,0.00,VWS V14.01,2013-02-08 23:33:00,
2013-02-08 17:38:00,65.9,28.1,30.09,NNE,22,0.0,0.0,24,0.00,,CLR,0.00,VWS V14.01,2013-02-08 23:38:00,
2013-02-08 17:40:00,66.1,28.3,30.10,NNE,21,0.0,1.0,24,0.00,,CLR,0.00,VWS V14.01,2013-02-08 23:40:00,
2013-02-08 17:43:00,65.8,29.0,30.09,NNE,22,0.0,0.0,25,0.00,,CLR,0.00,VWS V14.01,2013-02-08 23:43:00,
2013-02-08 17:48:00,65.6,27.9,30.09,NNE,22,0.0,0.0,24,0.00,,CLR,0.00,VWS V14.01,2013-02-08 23:48:00,
2013-02-08 17:50:00,65.9,28.1,30.09,NNE,22,0.0,1.0,24,0.00,,CLR,0.00,VWS V14.01,2013-02-08 23:50:00,
2013-02-08 17:53:00,65.5,27.8,30.09,NNE,22,0.0,0.0,24,0.00,,CLR,0.00,VWS V14.01,2013-02-08 23:53:00,
2013-02-08 17:59:00,65.3,30.5,30.09,NNE,22,0.0,0.0,27,0.00,,CLR,0.00,VWS V14.01,2013-02-08 23:59:00,
2013-02-08 18:00:00,65.6,27.9,30.09,NNE,22,0.0,0.0,24,0.00,,CLR,0.00,VWS V14.01,2013-02-09 00:00:00,
2013-02-08 18:04:00,65.0,28.4,30.09,NNE,22,0.0,0.0,25,0.00,,CLR,0.00,VWS V14.01,2013-02-09 00:04:00,
2013-02-08 18:09:00,64.5,27.9,30.09,NNE,22,0.0,0.0,25,0.00,,CLR,0.00,VWS V14.01,2013-02-09 00:09:00,
2013-02-08 18:10:00,65.3,29.6,30.09,NNE,22,0.0,0.0,26,0.00,,CLR,0.00,VWS V14.01,2013-02-09 00:10:00,
2013-02-08 18:14:00,64.3,28.7,30.09,NNE,22,0.0,0.0,26,0.00,,CLR,0.00,VWS V14.01,2013-02-09 00:14:00,
2013-02-08 18:19:00,64.2,28.6,30.09,NNE,22,0.0,0.0,26,0.00,,CLR,0.00,VWS V14.01,2013-02-09 00:19:00,
2013-02-08 18:20:00,64.7,28.1,30.09,NNE,22,0.0,0.0,25,0.00,,CLR,0.00,VWS V14.01,2013-02-09 00:20:00,
2013-02-08 18:24:00,63.8,29.2,30.09,NNE,22,0.0,0.0,27,0.00,,CLR,0.00,VWS V14.01,2013-02-09 00:24:00,
2013-02-08 18:29:00,63.5,29.8,30.09,NNE,22,0.0,0.0,28,0.00,,CLR,0.00,VWS V14.01,2013-02-09 00:29:00,
2013-02-08 18:30:00,64.2,28.6,30.09,NNE,22,0.0,0.0,26,0.00,,CLR,0.00,VWS V14.01,2013-02-09 00:30:00,
2013-02-08 18:34:00,63.2,30.4,30.09,NNE,22,0.0,0.0,29,0.00,,CLR,0.00,VWS V14.01,2013-02-09 00:34:00,
2013-02-08 18:39:00,62.7,30.0,30.09,NNE,22,0.0,0.0,29,0.00,,CLR,0.00,VWS V14.01,2013-02-09 00:39:00,
2013-02-08 18:40:00,63.5,29.8,30.09,NNE,22,0.0,0.0,28,0.00,,CLR,0.00,VWS V14.01,2013-02-09 00:40:00,
2013-02-08 18:44:00,62.2,30.4,30.09,NNE,22,0.0,0.0,30,0.00,,CLR,0.00,VWS V14.01,2013-02-09 00:44:00,
2013-02-08 18:49:00,61.9,30.1,30.09,NNE,22,0.0,0.0,30,0.00,,CLR,0.00,VWS V14.01,2013-02-09 00:49:00,
2013-02-08 18:50:00,62.7,29.1,30.09,NNE,22,0.0,0.0,28,0.00,,CLR,0.00,VWS V14.01,2013-02-09 00:50:00,
2013-02-08 18:54:00,61.5,29.8,30.09,NNE,22,0.0,0.0,30,0.00,,CLR,0.00,VWS V14.01,2013-02-09 00:54:00,
2013-02-08 18:59:00,61.1,31.8,30.09,NNE,22,0.0,0.0,33,0.00,,CLR,0.00,VWS V14.01,2013-02-09 00:59:00,
2013-02-08 19:00:00,61.9,30.1,30.09,NNE,22,0.0,0.0,30,0.00,,CLR,0.00,VWS V14.01,2013-02-09 01:00:00,
2013-02-08 19:04:00,60.8,31.5,30.09,NNE,22,0.0,0.0,33,0.00,,CLR,0.00,VWS V14.01,2013-02-09 01:04:00,
2013-02-08 19:09:00,60.7,29.9,30.09,NNE,22,0.0,0.0,31,0.00,,CLR,0.00,VWS V14.01,2013-02-09 01:09:00,
2013-02-08 19:10:00,61.1,31.0,30.09,NNE,22,0.0,0.0,32,0.00,,CLR,0.00,VWS V14.01,2013-02-09 01:10:00,
2013-02-08 19:14:00,60.7,29.9,30.09,NNE,22,0.0,0.0,31,0.00,,CLR,0.00,VWS V14.01,2013-02-09 01:14:00,
2013-02-08 19:19:00,60.7,29.9,30.09,NNE,22,0.0,0.0,31,0.00,,CLR,0.00,VWS V14.01,2013-02-09 01:19:00,
2013-02-08 19:20:00,60.7,29.9,30.09,NNE,22,0.0,0.0,31,0.00,,CLR,0.00,VWS V14.01,2013-02-09 01:20:00,
2013-02-08 19:24:00,60.7,31.5,30.09,NNE,22,0.0,0.0,33,0.00,,CLR,0.00,VWS V14.01,2013-02-09 01:24:00,
2013-02-08 19:29:00,60.4,31.2,30.09,NNE,22,0.0,0.0,33,0.00,,CLR,0.00,VWS V14.01,2013-02-09 01:29:00,
2013-02-08 19:30:00,60.7,29.9,30.09,NNE,22,0.0,0.0,31,0.00,,CLR,0.00,VWS V14.01,2013-02-09 01:30:00,
2013-02-08 19:34:00,60.2,31.8,30.09,NNE,22,0.0,0.0,34,0.00,,CLR,0.00,VWS V14.01,2013-02-09 01:34:00,
2013-02-08 19:39:00,59.9,31.5,30.09,NNE,22,0.0,0.0,34,0.00,,CLR,0.00,VWS V14.01,2013-02-09 01:39:00,
2013-02-08 19:40:00,60.4,31.2,30.09,NNE,22,0.0,0.0,33,0.00,,CLR,0.00,VWS V14.01,2013-02-09 01:40:00,
2013-02-08 19:44:00,59.7,31.3,30.09,NNE,22,0.0,0.0,34,0.00,,CLR,0.00,VWS V14.01,2013-02-09 01:44:00,
2013-02-08 19:49:00,59.6,31.9,30.09,NNE,22,0.0,0.0,35,0.00,,CLR,0.00,VWS V14.01,2013-02-09 01:49:00,
2013-02-08 19:50:00,60.0,31.6,30.09,NNE,22,0.0,0.0,34,0.00,,CLR,0.00,VWS V14.01,2013-02-09 01:50:00,
2013-02-08 19:54:00,59.4,31.8,30.09,NNE,22,0.0,0.0,35,0.00,,CLR,0.00,VWS V14.01,2013-02-09 01:54:00,
2013-02-08 19:59:00,59.3,33.0,30.09,NNE,22,0.0,0.0,37,0.00,,CLR,0.00,VWS V14.01,2013-02-09 01:59:00,
2013-02-08 20:00:00,59.6,31.9,30.09,NNE,22,0.0,0.0,35,0.00,,CLR,0.00,VWS V14.01,2013-02-09 02:00:00,
2013-02-08 20:04:00,59.1,33.5,30.09,NNE,22,0.0,0.0,38,0.00,,CLR,0.00,VWS V14.01,2013-02-09 02:04:00,
2013-02-08 20:09:00,59.1,32.9,30.09,NNE,22,0.0,0.0,37,0.00,,CLR,0.00,VWS V14.01,2013-02-09 02:09:00,
2013-02-08 20:10:00,59.3,33.7,30.09,NNE,22,0.0,0.0,38,0.00,,CLR,0.00,VWS V14.01,2013-02-09 02:10:00,
2013-02-08 20:14:00,59.1,32.2,30.09,NNE,22,0.0,0.0,36,0.00,,CLR,0.00,VWS V14.01,2013-02-09 02:14:00,
2013-02-08 20:19:00,59.3,31.7,30.09,NNE,22,0.0,0.0,35,0.00,,CLR,0.00,VWS V14.01,2013-02-09 02:19:00,
2013-02-08 20:20:00,59.1,33.5,30.09,NNE,22,0.0,0.0,38,0.00,,CLR,0.00,VWS V14.01,2013-02-09 02:20:00,
2013-02-08 20:24:00,59.3,32.4,30.09,NNE,22,0.0,0.0,36,0.00,,CLR,0.00,VWS V14.01,2013-02-09 02:24:00,
2013-02-08 20:29:00,59.1,32.2,30.09,NNE,22,0.0,0.0,36,0.00,,CLR,0.00,VWS V14.01,2013-02-09 02:29:00,
2013-02-08 20:30:00,59.3,31.7,30.09,NNE,22,0.0,0.0,35,0.00,,CLR,0.00,VWS V14.01,2013-02-09 02:30:00,
2013-02-08 20:34:00,59.0,32.8,30.09,NNE,22,0.0,0.0,37,0.00,,CLR,0.00,VWS V14.01,2013-02-09 02:34:00,
2013-02-08 20:39:00,58.7,34.5,30.09,NNE,22,0.0,0.0,40,0.00,,CLR,0.00,VWS V14.01,2013-02-09 02:39:00,
2013-02-08 20:40:00,59.1,32.2,30.09,NNE,22,0.0,0.0,36,0.00,,CLR,0.00,VWS V14.01,2013-02-09 02:40:00,
2013-02-08 20:44:00,58.5,33.0,30.09,NNE,22,0.0,0.0,38,0.00,,CLR,0.00,VWS V14.01,2013-02-09 02:44:00,
2013-02-08 20:49:00,58.5,33.0,30.09,NNE,22,0.0,0.0,38,0.00,,CLR,0.00,VWS V14.01,2013-02-09 02:49:00,
2013-02-08 20:50:00,58.7,34.5,30.09,NNE,22,0.0,0.0,40,0.00,,CLR,0.00,VWS V14.01,2013-02-09 02:50:00,
2013-02-08 20:54:00,58.7,33.2,30.09,NNE,22,0.0,0.0,38,0.00,,CLR,0.00,VWS V14.01,2013-02-09 02:54:00,
2013-02-08 20:59:00,58.8,33.3,30.09,NNE,22,0.0,0.0,38,0.00,,CLR,0.00,VWS V14.01,2013-02-09 02:59:00,
2013-02-08 21:00:00,58.5,33.0,30.09,NNE,22,0.0,1.0,38,0.00,,CLR,0.00,VWS V14.01,2013-02-09 03:00:00,
2013-02-08 21:04:00,58.7,33.2,30.09,NNE,22,0.0,0.0,38,0.00,,CLR,0.00,VWS V14.01,2013-02-09 03:04:00,
2013-02-08 21:09:00,58.5,33.7,30.09,NNE,22,0.0,0.0,39,0.00,,CLR,0.00,VWS V14.01,2013-02-09 03:09:00,
2013-02-08 21:10:00,58.8,33.3,30.09,NNE,22,0.0,0.0,38,0.00,,CLR,0.00,VWS V14.01,2013-02-09 03:10:00,
2013-02-08 21:14:00,58.4,34.2,30.09,NNE,22,0.0,0.0,40,0.00,,CLR,0.00,VWS V14.01,2013-02-09 03:14:00,
2013-02-08 21:19:00,58.1,35.2,30.10,NNE,22,0.0,0.0,42,0.00,,CLR,0.00,VWS V14.01,2013-02-09 03:19:00,
2013-02-08 21:20:00,58.5,33.7,30.09,NNE,22,0.0,0.0,39,0.00,,CLR,0.00,VWS V14.01,2013-02-09 03:20:00,
2013-02-08 21:24:00,57.8,34.9,30.10,NNE,22,0.0,0.0,42,0.00,,CLR,0.00,VWS V14.01,2013-02-09 03:24:00,
2013-02-08 21:30:00,58.1,35.2,30.10,NNE,22,0.0,0.0,42,0.00,,CLR,0.00,VWS V14.01,2013-02-09 03:30:00,
2013-02-08 21:40:00,57.9,35.0,30.10,North,0,0.0,0.0,42,0.00,,CLR,0.00,VWS V14.01,2013-02-09 03:40:00,
2013-02-08 21:50:00,57.6,35.9,30.10,North,0,0.0,0.0,44,0.00,,CLR,0.00,VWS V14.01,2013-02-09 03:50:00,
2013-02-08 22:00:00,57.5,34.6,30.10,North,0,0.0,0.0,42,0.00,,CLR,0.00,VWS V14.01,2013-02-09 04:00:00,
2013-02-08 22:10:00,55.7,35.3,30.09,NNE,22,0.0,0.0,46,0.00,,BKN036,0.00,VWS V14.01,2013-02-09 04:10:00,
2013-02-08 22:17:00,57.3,35.0,30.10,North,0,0.0,0.0,43,0.00,,CLR,0.00,VWS V14.01,2013-02-09 04:17:00,
2013-02-08 22:20:00,55.8,35.9,30.09,NNE,22,0.0,0.0,47,0.00,,BKN036,0.00,VWS V14.01,2013-02-09 04:20:00,
2013-02-08 22:22:00,56.2,34.6,30.10,NNE,22,0.0,0.0,44,0.00,,CLR,0.00,VWS V14.01,2013-02-09 04:22:00,
2013-02-08 22:27:00,56.2,34.6,30.10,NNE,22,0.0,0.0,44,0.00,,CLR,0.00,VWS V14.01,2013-02-09 04:27:00,
2013-02-08 22:30:00,56.4,34.2,30.10,NNE,22,0.0,0.0,43,0.00,,CLR,0.00,VWS V14.01,2013-02-09 04:30:00,
2013-02-08 22:32:00,56.2,34.6,30.09,NNE,22,0.0,0.0,44,0.00,,CLR,0.00,VWS V14.01,2013-02-09 04:32:00,
2013-02-08 22:37:00,56.1,35.1,30.09,NNE,22,0.0,0.0,45,0.00,,CLR,0.00,VWS V14.01,2013-02-09 04:37:00,
2013-02-08 22:40:00,56.2,34.6,30.10,NNE,22,0.0,0.0,44,0.00,,CLR,0.00,VWS V14.01,2013-02-09 04:40:00,
2013-02-08 22:42:00,56.1,35.1,30.09,NNE,22,0.0,0.0,45,0.00,,CLR,0.00,VWS V14.01,2013-02-09 04:42:00,
2013-02-08 22:47:00,56.0,35.0,30.09,NNE,22,0.0,0.0,45,0.00,,CLR,0.00,VWS V14.01,2013-02-09 04:47:00,
2013-02-08 22:50:00,56.1,35.1,30.09,NNE,22,0.0,0.0,45,0.00,,CLR,0.00,VWS V14.01,2013-02-09 04:50:00,
2013-02-08 22:52:00,55.8,34.8,30.09,NNE,22,0.0,0.0,45,0.00,,CLR,0.00,VWS V14.01,2013-02-09 04:52:00,
2013-02-08 22:57:00,55.7,35.3,30.09,NNE,22,0.0,0.0,46,0.00,,CLR,0.00,VWS V14.01,2013-02-09 04:57:00,
2013-02-08 23:00:00,55.7,35.3,30.09,NNE,22,0.0,0.0,46,0.00,,CLR,0.00,VWS V14.01,2013-02-09 05:00:00,
2013-02-08 23:05:00,55.7,35.3,30.09,NNE,22,0.0,0.0,46,0.00,,CLR,0.00,VWS V14.01,2013-02-09 05:05:00,
2013-02-08 23:10:00,55.8,36.4,30.09,NNE,22,0.0,0.0,48,0.00,,CLR,0.00,VWS V14.01,2013-02-09 05:10:00,
2013-02-08 23:15:00,55.7,36.8,30.09,NNE,22,0.0,0.0,49,0.00,,CLR,0.00,VWS V14.01,2013-02-09 05:15:00,
2013-02-08 23:20:00,55.4,36.6,30.09,NNE,22,0.0,0.0,49,0.00,,CLR,0.00,VWS V14.01,2013-02-09 05:20:00,
2013-02-08 23:25:00,55.1,36.3,30.09,NNE,22,0.0,0.0,49,0.00,,CLR,0.00,VWS V14.01,2013-02-09 05:25:00,
2013-02-08 23:30:00,54.8,36.0,30.09,NNE,22,0.0,0.0,49,0.00,,CLR,0.00,VWS V14.01,2013-02-09 05:30:00,
2013-02-08 23:35:00,54.5,37.7,30.09,NNE,22,0.0,0.0,53,0.00,,CLR,0.00,VWS V14.01,2013-02-09 05:35:00,
2013-02-08 23:40:00,54.0,36.8,30.09,NNE,22,0.0,0.0,52,0.00,,CLR,0.00,VWS V14.01,2013-02-09 05:40:00,
2013-02-08 23:45:00,53.6,37.4,30.09,NNE,22,0.0,0.0,54,0.00,,CLR,0.00,VWS V14.01,2013-02-09 05:45:00,
2013-02-08 23:50:00,53.3,38.0,30.09,NNE,22,0.0,0.0,56,0.00,,CLR,0.00,VWS V14.01,2013-02-09 05:50:00,
2013-02-08 23:55:00,52.8,38.9,30.09,NNE,22,0.0,0.0,59,0.00,,CLR,0.00,VWS V14.01,2013-02-09 05:55:00,